Hourly Data Report for July 02, 2021

TORONTO INTL A
ONTARIO
Current Station Operator: NAVCAN

43°40'36.000" N
79°37'50.000" W
173.40 m
6158731
71624
YYZ

Download Data

Hourly Data (July 2021)
Hourly Data Report for July 2, 2021
TIME
LST
Temp Definition
°C
Dew Point Definition
°C
Rel Hum Definition
%
Precip. Amount Definition
mm

Wind Dir Definition
10's deg

Wind Spd Definition
km/h
Visibility Definition
km
Stn Press Definition
kPa
Hmdx Definition


Wind Chill Definition


Weather Definition


00:00 17.1 12.0 72   36 21 24.1 99.13     LegendNANA
01:00 16.3 12.8 79   35 21 24.1 99.11     Mainly Clear
02:00 16.0 13.3 84   36 22 24.1 99.05     LegendNANA
03:00 16.3 13.8 85   36 21 24.1 99.05     LegendNANA
04:00 16.4 14.0 85   36 25 24.1 99.05     Mostly Cloudy
05:00 16.4 13.9 85   34 26 24.1 99.09     LegendNANA
06:00 16.8 14.1 84   35 19 24.1 99.11     LegendNANA
07:00 18.0 14.0 77   36 24 24.1 99.12     Mainly Clear
08:00 18.6 13.9 74   36 26 24.1 99.17     LegendNANA
09:00 19.8 14.6 71   35 27 24.1 99.16     LegendNANA
10:00 21.0 13.6 62   1 30 24.1 99.15     Mostly Cloudy
11:00 21.4 14.4 64   2 18 24.1 99.14 25   LegendNANA
12:00 22.6 14.6 60   2 24 24.1 99.12 26   LegendNANA
13:00 22.4 14.6 61   4 15 24.1 99.05 26   Mostly Cloudy
14:00 23.1 13.0 52   3 18 24.1 99.01 26   LegendNANA
15:00 21.7 15.1 66   8 17 16.1 99.01 26   Moderate Rain Showers
16:00 16.0 13.6 86   12 26 2.0 99.17     Thunderstorms,Heavy Rain Showers
17:00 19.0 15.7 81   36 21 24.1 99.16     LegendNANA
18:00 20.2 13.9 66   1 20 24.1 99.11     LegendNANA
19:00 19.4 14.3 72   36 19 24.1 99.16     Mainly Clear
20:00 18.6 13.9 74   35 13 24.1 99.18     LegendNANA
21:00 18.5 12.7 69   35 19 24.1 99.19     LegendNANA
22:00 17.7 12.9 73   36 16 24.1 99.16     Mainly Clear
23:00 17.2 12.8 75   34 13 24.1 99.13     LegendNANA

Notes on Data Quality.

Legend

  • E = Estimated
  • M = Missing
  • NA = Not Available*
  • [empty] = Indicates an unobserved value
Date modified: